sat.trackr.live / text

‹ back to catalog

STAR ONE D1

NORAD 41904 · 2016-082B

PAYLOAD ACTIVE UNKNOWN

§ Identity

Operator
Country
BRAZ
Launch date
2016-12-21
Launch site
FRGUI
Launch vehicle
Mass (kg)
RCS (m²)
0.00

Purposes: comms

External: N2YO · Heavens-Above · Gunter

§ Orbital elements

Epoch: 2026-05-25T03:26:38.623776Z

Period
1,436.13 min
Inclination
0.0180°
Eccentricity
0.0002054
Mean motion
1.00269674 rev/d
Perigee alt
35,778.5 km
Apogee alt
35,795.8 km
Semi-major
42,165.3 km
B*
0.0000e+0
RAAN
56.2348°
Arg perigee
17.0416°
Mean anomaly
137.1190°
Rev number
3,454

§ Raw data

STAR ONE D11 41904U 16082B   26145.14350259 -.00000213  00000+0  00000+0 0  99972 41904   0.0180  56.2348 0002054  17.0416 137.1190  1.00269674 34540

JSON: /api/v1/satellites/41904 · /tle

For live sub-satellite position, see the globe view (requires WebGL).

§ Visibility from observer

Set your observer location to see the next 7 days of passes ≥ 10°. The values pass through the URL so the page stays shareable.

No JS? Fill the form by hand. The geolocation button needs JavaScript.